When you browse on this site, cookies collect data to enhance your experience and personalize the content and advertising you see.
Visit our Privacy Policy to learn more. By continuing to use the site, you agree to this use of cookies and data.
  • In Austria
  • List of Countries
  • For 7 days
  • Water Temperature
  • Satellite Maps
  • Weather Map
  • News
  • Weather Widgets
  • user-avatar
    Login

    Hourly Weather Kadyivka

    Today, 21 February, Thursday

    Time Temperature Precipitation Wind Pressure Humidity
    00:00 +1°C° 0 mm 6 mps 733 mmHg 79%
    01:00 -1°C° 0 mm 6 mps 733 mmHg 79%
    02:00 -1°C° 0 mm 6 mps 734 mmHg 79%
    03:00 -1°C° 0 mm 6 mps 734 mmHg 81%
    04:00 -1°C° 0 mm 6 mps 734 mmHg 82%
    05:00 -2°C° 0 mm 6 mps 734 mmHg 83%
    06:00 -2°C° 0 mm 6 mps 734 mmHg 84%
    07:00 -2°C° 0 mm 6 mps 735 mmHg 85%
    08:00 -3°C° 0 mm 6 mps 735 mmHg 86%
    09:00 -2°C° 0 mm 7 mps 735 mmHg 80%
    10:00 -1°C° 0 mm 7 mps 735 mmHg 74%
    11:00 0°C° 0 mm 7 mps 736 mmHg 68%
    12:00 0°C° 0 mm 7 mps 735 mmHg 69%
    13:00 0°C° 0 mm 7 mps 735 mmHg 70%
    14:00 +2°C° 0 mm 7 mps 735 mmHg 71%
    15:00 +2°C° 0.1 mm 6 mps 735 mmHg 75%
    16:00 +1°C° 0.1 mm 5 mps 735 mmHg 79%
    17:00 +1°C° 0.1 mm 5 mps 735 mmHg 84%
    18:00 +1°C° 0.2 mm 4 mps 735 mmHg 86%
    19:00 +1°C° 0.2 mm 4 mps 735 mmHg 88%
    20:00 +1°C° 0.2 mm 4 mps 735 mmHg 90%
    21:00 +1°C° 0.2 mm 4 mps 734 mmHg 89%
    22:00 +1°C° 0.2 mm 4 mps 734 mmHg 89%
    23:00 +1°C° 0.2 mm 4 mps 734 mmHg 88%

    Tomorrow, 22 February, Friday

    Time Temperature Precipitation Wind Pressure Humidity
    00:00 +1°C° 0.5 mm 4 mps 734 mmHg 87%
    01:00 +1°C° 0.5 mm 4 mps 734 mmHg 87%
    02:00 +2°C° 0.5 mm 3 mps 733 mmHg 86%
    03:00 +1°C° 0.7 mm 3 mps 733 mmHg 88%
    04:00 +1°C° 0.7 mm 3 mps 732 mmHg 90%
    05:00 0°C° 0.7 mm 3 mps 732 mmHg 91%
    06:00 -2°C° 0.5 mm 4 mps 732 mmHg 91%
    07:00 -4°C° 0.5 mm 6 mps 732 mmHg 90%
    08:00 -7°C° 0.5 mm 7 mps 733 mmHg 90%
    09:00 -7°C° 0.3 mm 7 mps 733 mmHg 87%
    10:00 -7°C° 0.3 mm 7 mps 734 mmHg 84%
    11:00 -7°C° 0.3 mm 7 mps 735 mmHg 82%
    12:00 -7°C° 0 mm 7 mps 736 mmHg 76%
    13:00 -7°C° 0 mm 7 mps 737 mmHg 70%
    14:00 -7°C° 0 mm 7 mps 738 mmHg 64%
    15:00 -8°C° 0 mm 7 mps 738 mmHg 64%
    16:00 -8°C° 0 mm 7 mps 739 mmHg 63%
    17:00 -9°C° 0 mm 6 mps 739 mmHg 63%
    18:00 -10°C° 0 mm 6 mps 740 mmHg 63%
    19:00 -10°C° 0 mm 6 mps 740 mmHg 62%
    20:00 -10°C° 0 mm 6 mps 741 mmHg 62%
    21:00 -11°C° 0 mm 6 mps 741 mmHg 63%
    22:00 -11°C° 0 mm 6 mps 742 mmHg 63%
    23:00 -11°C° 0 mm 6 mps 742 mmHg 64%

    Day after tomorrow, 23 February, Saturday

    Time Temperature Precipitation Wind Pressure Humidity
    00:00 -11°C° 0 mm 6 mps 742 mmHg 64%
    01:00 -12°C° 0 mm 7 mps 743 mmHg 64%
    02:00 -12°C° 0 mm 7 mps 743 mmHg 65%
    03:00 -12°C° 0 mm 7 mps 743 mmHg 66%
    04:00 -13°C° 0 mm 7 mps 743 mmHg 67%
    05:00 -13°C° 0 mm 7 mps 744 mmHg 68%
    06:00 -13°C° 0 mm 7 mps 744 mmHg 69%
    07:00 -13°C° 0 mm 7 mps 745 mmHg 69%
    08:00 -13°C° 0 mm 7 mps 745 mmHg 70%
    09:00 -11°C° 0 mm 6 mps 745 mmHg 68%
    10:00 -11°C° 0 mm 6 mps 746 mmHg 66%
    11:00 -11°C° 0 mm 6 mps 746 mmHg 64%
    12:00 -10°C° 0 mm 6 mps 746 mmHg 63%
    13:00 -10°C° 0 mm 6 mps 746 mmHg 63%
    14:00 -10°C° 0 mm 6 mps 746 mmHg 63%
    15:00 -10°C° 0 mm 6 mps 746 mmHg 64%
    16:00 -10°C° 0 mm 6 mps 746 mmHg 65%
    17:00 -10°C° 0 mm 6 mps 746 mmHg 66%
    18:00 -10°C° 0 mm 5 mps 746 mmHg 68%
    19:00 -11°C° 0 mm 5 mps 746 mmHg 69%
    20:00 -11°C° 0 mm 5 mps 746 mmHg 71%
    21:00 -11°C° 0 mm 5 mps 746 mmHg 71%
    22:00 -10°C° 0 mm 4 mps 747 mmHg 71%
    23:00 -10°C° 0 mm 4 mps 747 mmHg 71%

    24 February, Sunday

    Time Temperature Precipitation Wind Pressure Humidity
    00:00 -10°C° 0 mm 3 mps 746 mmHg 72%
    01:00 -10°C° 0 mm 3 mps 746 mmHg 73%
    02:00 -10°C° 0 mm 3 mps 746 mmHg 75%
    03:00 -10°C° 0 mm 3 mps 746 mmHg 75%
    04:00 -10°C° 0 mm 3 mps 746 mmHg 76%
    05:00 -12°C° 0 mm 3 mps 745 mmHg 77%
    06:00 -10°C° 0 mm 3 mps 745 mmHg 75%
    07:00 -10°C° 0 mm 3 mps 745 mmHg 73%
    08:00 -10°C° 0 mm 3 mps 746 mmHg 71%
    09:00 -9°C° 0 mm 3 mps 746 mmHg 65%
    10:00 -8°C° 0 mm 3 mps 745 mmHg 59%
    11:00 -6°C° 0 mm 3 mps 745 mmHg 53%
    12:00 -7°C° 0 mm 4 mps 745 mmHg 51%
    13:00 -5°C° 0 mm 4 mps 744 mmHg 48%
    14:00 -4°C° 0 mm 4 mps 744 mmHg 46%
    15:00 -4°C° 0 mm 4 mps 744 mmHg 51%
    16:00 -5°C° 0 mm 4 mps 743 mmHg 56%
    17:00 -5°C° 0 mm 4 mps 743 mmHg 61%
    18:00 -5°C° 0 mm 4 mps 742 mmHg 63%
    19:00 -5°C° 0 mm 4 mps 742 mmHg 66%
    20:00 -5°C° 0 mm 4 mps 742 mmHg 68%
    21:00 -5°C° 0 mm 3 mps 742 mmHg 66%
    22:00 -5°C° 0 mm 3 mps 741 mmHg 64%
    23:00 -4°C° 0 mm 3 mps 741 mmHg 61%

    25 February, Monday

    Time Temperature Precipitation Wind Pressure Humidity
    00:00 -4°C° 0 mm 3 mps 740 mmHg 62%
    01:00 -3°C° 0 mm 2 mps 740 mmHg 63%
    02:00 -3°C° 0 mm 2 mps 739 mmHg 64%
    03:00 -3°C° 0 mm 2 mps 739 mmHg 66%
    04:00 -3°C° 0 mm 2 mps 738 mmHg 68%
    05:00 -4°C° 0 mm 3 mps 738 mmHg 69%
    06:00 -4°C° 0.1 mm 3 mps 738 mmHg 75%
    07:00 -4°C° 0.1 mm 3 mps 737 mmHg 81%
    08:00 -4°C° 0.1 mm 3 mps 737 mmHg 87%
    09:00 -4°C° 0.3 mm 4 mps 737 mmHg 88%
    10:00 -3°C° 0.3 mm 4 mps 737 mmHg 89%
    11:00 -3°C° 0.3 mm 4 mps 736 mmHg 91%
    12:00 -2°C° 0.3 mm 5 mps 736 mmHg 91%
    13:00 -3°C° 0.3 mm 6 mps 736 mmHg 91%
    14:00 -2°C° 0.3 mm 6 mps 736 mmHg 91%
    15:00 -2°C° 0.1 mm 7 mps 736 mmHg 89%
    16:00 -2°C° 0.1 mm 8 mps 737 mmHg 87%
    17:00 -2°C° 0.1 mm 8 mps 737 mmHg 85%
    18:00 -2°C° 0 mm 8 mps 737 mmHg 84%
    19:00 -3°C° 0 mm 7 mps 738 mmHg 83%
    20:00 -3°C° 0 mm 7 mps 738 mmHg 81%
    21:00 -3°C° 0 mm 7 mps 738 mmHg 81%
    22:00 -4°C° 0 mm 7 mps 738 mmHg 80%
    23:00 -4°C° 0 mm 7 mps 739 mmHg 79%

    26 February, Tuesday

    Time Temperature Precipitation Wind Pressure Humidity
    00:00 -4°C° 0 mm 6 mps 739 mmHg 82%
    01:00 -4°C° 0 mm 6 mps 738 mmHg 85%
    02:00 -5°C° 0 mm 6 mps 738 mmHg 87%
    03:00 -5°C° 0 mm 6 mps 738 mmHg 88%
    04:00 -5°C° 0 mm 6 mps 737 mmHg 89%
    05:00 -5°C° 0 mm 6 mps 737 mmHg 90%
    06:00 -5°C° 0 mm 6 mps 736 mmHg 89%
    07:00 -5°C° 0 mm 6 mps 736 mmHg 87%
    08:00 -5°C° 0 mm 6 mps 736 mmHg 85%
    09:00 -4°C° 0 mm 6 mps 735 mmHg 84%
    10:00 -3°C° 0 mm 7 mps 735 mmHg 83%
    11:00 -3°C° 0 mm 7 mps 734 mmHg 82%
    12:00 -2°C° 0 mm 7 mps 734 mmHg 82%
    13:00 -2°C° 0 mm 7 mps 733 mmHg 82%
    14:00 -2°C° 0 mm 7 mps 733 mmHg 82%
    15:00 -2°C° 0 mm 7 mps 732 mmHg 83%
    16:00 -2°C° 0 mm 7 mps 732 mmHg 83%
    17:00 -2°C° 0 mm 7 mps 732 mmHg 83%
    18:00 -2°C° 0 mm 7 mps 731 mmHg 84%
    19:00 -2°C° 0 mm 7 mps 731 mmHg 85%
    20:00 -2°C° 0 mm 7 mps 730 mmHg 86%
    21:00 -2°C° 0.1 mm 8 mps 729 mmHg 87%
    22:00 -1°C° 0.1 mm 8 mps 728 mmHg 88%
    23:00 -1°C° 0.1 mm 9 mps 728 mmHg 89%
    Show more